Location: Halemba
(50.2444°N, 18.8463°E)
Time: 06:35:56
(UTC+00:00)

Daily predictions for brighter satellites

Satellite Brightness Start Highest point End
(mag) Time Altitude Azimuth Time Altitude Azimuth Time Altitude Azimuth
Cosmos 1461 4.2 19:35:34 10° NNW 19:39:33 34° NE 19:43:20 10° ESE
USA 215 4.3 19:36:11 10° ENE 19:41:02 22° SE 19:45:52 10° S
Cosmos 1727 Rocket 4.3 19:37:19 10° SSE 19:43:25 54° E 19:49:31 10° NNE
USA 238 DEB 3.7 19:37:25 10° SSW 19:43:53 66° SE 19:50:44 10° NE
USA 238 3.7 19:37:32 10° SSW 19:43:59 66° SE 19:50:50 10° NE
Terra 2.8 19:40:20 10° SE 19:44:39 36° ENE 19:49:00 10° N
Cosmos 1953 3.3 19:41:27 10° N 19:45:12 34° ENE 19:48:54 10° SE
Cosmos 2263 Rocket 2.7 19:39:52 10° NW 19:45:28 58° WSW 19:51:01 10° S
Cosmos 676 Rocket 4.3 19:40:37 10° NNW 19:45:57 71° WSW 19:51:16 10° SSE
USA 81 4.1 19:41:40 10° N 19:46:58 72° E 19:52:14 10° SSE
Cosmos 1605 Rocket 4.3 19:41:10 10° NNW 19:47:35 77° W 19:53:58 10° S
BREEZE-M DEB (TANK) 2.4 19:42:45 10° WNW 19:47:48 71° SSW 19:50:00 10° ESE
Cosmos 1954 Rocket 4.4 19:43:12 10° NNW 19:48:31 66° WSW 19:53:46 10° S
Cosmos 2285 Rocket 4.1 19:43:23 10° S 19:49:44 66° ESE 19:56:07 10° NNE
Cosmos 1707 2.7 19:47:39 10° S 19:51:30 68° E 19:55:23 10° NNE
Cosmos 1726 2.6 19:49:43 10° NNW 19:53:19 60° W 19:56:53 10° S
Okean 1 Rocket 3.5 19:49:18 10° NNW 19:53:37 64° W 19:57:56 10° S
Cosmos 2333 Rocket 4.1 19:53:38 10° ESE 19:56:09 13° E 19:58:39 10° ENE
Cosmos 1455 Rocket 3.5 19:54:32 10° N 19:58:53 51° ENE 20:03:12 10° SSE
Aureole 1 Rocket 4.4 19:54:57 10° NNW 20:00:05 51° ENE 20:06:45 10° SE
ATLAS CENTAUR R/B 3.2 19:57:25 10° NNW 20:01:02 27° NE 20:04:50 10° E
In-Cosmos 22 4.2 19:57:21 10° S 20:02:32 61° E 20:07:46 10° NNE
CENTAUR R/B 2.6 19:57:00 10° SW 20:02:58 79° SE 20:10:13 10° NE
Meteor 2-20 Rocket 4.5 19:59:26 10° S 20:05:31 69° E 20:11:35 10° NNE
JB-3 4.3 20:04:03 10° NNE 20:07:59 77° ESE 20:11:58 10° S
GEOS 3 Rocket 4.3 20:04:03 10° ESE 20:09:15 53° NE 20:14:26 10° NW
Cosmos 1844 4.2 20:05:01 10° NNW 20:10:28 51° NE 20:15:46 11° SE
H-2A R/B 4.3 20:12:38 10° NNE 20:16:20 32° E 20:19:29 13° SSE
USA 267 3.7 20:10:31 10° E 20:16:58 64° NNE 20:23:25 10° WNW
Cosmos 2219 Rocket 3.8 20:16:37 11° SE 20:19:44 17° E 20:23:17 10° ENE
Cosmos 1459 Rocket 4.0 20:16:09 10° N 20:22:15 76° E 20:27:56 12° SSE
Resurs 01 Rocket 3.8 20:20:12 10° SW 20:23:34 21° W 20:26:56 10° NW
Cosmos 2061 Rocket 4.4 20:18:53 10° N 20:25:13 55° ENE 20:30:46 14° SSE
NOSS 8 (A) 4.3 20:30:36 10° SSW 20:33:48 49° SE 20:36:39 10° NE
Cosmos 1452 Rocket 3.5 20:28:45 10° SSW 20:34:02 86° ESE 20:39:22 10° NNE
Cosmos 405 3.9 20:31:00 10° N 20:34:12 35° ENE 20:36:28 16° SE
KORONAS-FOTON 3.7 20:31:01 10° S 20:34:50 87° E 20:38:39 10° N
SL-16 R/B 2.3 20:29:21 10° SSW 20:35:01 83° WNW 20:40:44 10° NNE
CZ-4B DEB 4.2 20:34:18 17° SSE 20:36:38 87° ENE 20:39:49 10° NNW
SL-23 DEB 4.5 20:34:12 10° W 20:38:02 79° N 20:44:37 10° E
Meteor 1-16 Rocket 4.3 20:33:37 10° NNW 20:39:10 72° W 20:44:06 12° S
Cosmos 2322 Rocket 2.2 20:33:37 10° SSW 20:39:19 86° ESE 20:45:05 10° NNE
SL-8 R/B 3.7 20:34:36 10° W 20:39:21 63° SSW 20:44:05 10° ESE
Cosmos 2360 Rocket 2.3 20:34:02 10° S 20:39:31 55° ESE 20:45:02 10° NE
Cosmos 1626 2.2 20:38:36 15° S 20:41:27 58° E 20:45:06 10° NNE
Cosmos 1850 Rocket 4.4 20:37:25 10° NNW 20:42:40 60° WSW 20:47:06 14° S
COSMOS 2428 4.0 20:44:06 15° SE 20:47:06 23° ESE 20:51:29 10° NE
Genesis I 3.5 20:44:05 10° SW 20:47:57 68° NW 20:51:55 10° NE
Cosmos 1025 Rocket 3.0 20:44:29 13° S 20:48:18 74° E 20:52:42 10° NNE
Cosmos 2123 Rocket 4.1 20:43:39 13° S 20:49:10 62° E 20:55:25 10° NNE
Cosmos 1975 Rocket 3.5 20:46:02 10° SSW 20:50:19 60° WNW 20:54:41 10° N
Cosmos 2322 4.4 20:48:30 16° SSE 20:52:18 34° ESE 20:57:22 10° NE
Cosmos 2237 4.2 20:47:01 10° SSW 20:52:43 80° ESE 20:58:27 10° NNE
Cosmos 2100 Rocket 4.5 20:49:52 10° NNW 20:56:08 60° W 21:02:07 11° S
Cosmos 2228 4.2 20:53:01 10° N 20:56:59 31° ENE 20:59:52 16° SE
Meteor 2-5 Rocket 4.1 20:53:53 17° SSE 20:57:53 47° E 21:03:14 10° NNE
Cosmos 1455 4.4 20:56:39 10° NNE 20:59:05 16° ENE 21:01:29 10° ESE
NOSS 3-2 (C) 3.9 20:53:35 10° WSW 20:59:20 64° NW 21:06:05 10° NE
Cosmos 2233 Rocket 4.2 20:53:51 10° N 20:59:56 59° ENE 21:04:32 18° SSE
Cosmos 2278 Rocket 3.6 20:54:54 10° NNW 20:59:58 32° NE 21:05:02 10° ESE
SPOT 5 4.0 20:55:35 10° SSW 21:00:27 41° W 21:05:11 10° NNW
Cosmos 1346 Rocket 4.4 20:59:47 16° ESE 21:01:30 21° E 21:04:32 10° NE
ARIANE 5 R/B 4.4 20:58:04 10° SSW 21:01:48 26° W 21:05:35 10° NW
Cosmos 1900 4.3 20:59:02 10° NW 21:03:59 88° SW 21:07:26 20° SE
Cosmos 1674 3.7 21:00:34 10° SSW 21:04:07 43° WNW 21:07:41 10° N
Cosmos 1331 Rocket 4.0 20:59:23 10° SSW 21:04:32 74° ESE 21:09:50 10° NNE
Cosmos 1300 2.7 21:01:48 10° N 21:05:37 74° E 21:07:53 23° SSE
BREEZE-M DEB (TANK) 4.5 20:56:49 10° SSW 21:05:59 26° SSE 21:09:36 10° E
Cosmos 1867 4.4 21:03:13 10° NW 21:08:32 47° NE 21:13:48 10° ESE
Lacrosse 5 rocket 2.0 21:08:00 24° SSE 21:08:45 26° SE 21:11:49 10° ENE
ERS-1 Rocket 4.3 21:05:01 10° SSW 21:09:33 34° W 21:14:09 10° NNW
ATLAS 3B R/B 3.0 21:05:51 13° S 21:11:11 43° ESE 21:17:29 10° NE
FALCON 9 DEB 3.5 21:13:35 10° SW 21:16:47 39° SSE 21:20:00 10° ENE
Lacrosse 5 3.6 21:13:19 10° W 21:16:57 20° SW 21:19:33 14° SSW
Cosmos 1844 Rocket 3.2 21:11:51 10° NW 21:17:20 50° WSW 21:21:16 19° S
Cosmos 1461 3.6 21:14:41 10° NW 21:18:42 41° WSW 21:20:50 23° S
Cosmos 1302 Rocket 4.2 21:17:22 19° S 21:21:01 55° ESE 21:26:08 10° NNE
Cosmos 1953 4.2 21:18:06 10° NNW 21:21:26 25° W 21:24:45 10° SW
Cosmos 2016 Rocket 4.3 21:15:29 10° NNW 21:21:29 61° W 21:26:23 16° S
Terra 3.1 21:18:34 12° SSW 21:22:25 34° W 21:26:45 10° NNW
USA 215 3.2 21:18:22 10° ENE 21:24:54 66° SE 21:31:24 10° SW
Cosmos 2333 4.2 21:25:50 13° SSW 21:30:59 75° ESE 21:36:43 10° NNE
Cosmos 1725 Rocket 4.3 21:25:17 10° NNW 21:31:22 60° W 21:36:06 17° SSW
ALOS 2 3.3 21:30:05 20° SE 21:32:47 44° ENE 21:36:59 10° N
Cosmos 1340 3.1 21:31:14 18° SSW 21:33:54 59° WNW 21:37:40 10° N
Cosmos 389 Rocket 2.7 21:31:27 10° N 21:34:49 54° ENE 21:36:16 29° SE
Cosmos 1606 Rocket 3.8 21:32:01 10° N 21:36:29 61° ENE 21:38:58 25° SSE
SL-14 R/B 4.0 21:35:27 16° SSW 21:38:33 51° WNW 21:42:31 10° N
Cosmos 2333 Rocket 2.2 21:34:43 16° SSW 21:39:24 73° ESE 21:45:08 10° NNE
OPS 8737 4.3 21:36:45 18° SSW 21:39:26 65° SE 21:42:29 10° NE
ATLAS CENTAUR R/B 1.6 21:35:59 10° NW 21:40:15 66° SW 21:42:39 26° SSE
SJ 16-02 4.0 21:44:11 10° NNE 21:46:14 13° NE 21:48:16 10° ENE
GEOS 3 Rocket 4.3 21:44:23 22° S 21:47:22 42° WSW 21:52:27 10° NW
Cosmos 1486 Rocket 4.0 21:43:19 10° NNW 21:48:35 84° ENE 21:51:47 24° SSE
Cosmos 1943 Rocket 4.3 21:49:28 10° N 21:53:37 21° NE 21:57:46 10° E
Meteor 1-24 Rocket 3.7 21:50:33 20° SSW 21:54:22 79° WNW 21:59:52 10° N
CENTAUR R/B 4.2 21:48:20 10° W 21:54:23 40° NNW 22:01:31 10° NE
Cosmos 1354 Rocket 4.5 21:54:28 10° NNW 21:59:45 57° ENE 22:03:29 19° SE
USA 267 3.3 21:55:00 18° SE 22:00:01 64° SW 22:06:32 10° WNW
Spot 4 4.0 21:58:00 25° S 22:00:42 62° WSW 22:05:28 10° NNW
Cosmos 2219 Rocket 2.2 21:58:17 16° SSW 22:02:54 89° WNW 22:08:38 10° NNE
Cosmos 1607 4.2 22:01:35 10° NW 22:08:02 70° NE 22:13:43 13° SE
DNEPR-1 R/B 4.3 22:04:32 10° NW 22:08:25 36° WSW 22:09:57 27° SSW
SL-16 R/B 4.2 22:06:27 11° ESE 22:08:48 14° E 22:11:30 10° ENE
COBE Rocket 4.0 22:07:24 26° S 22:10:17 74° W 22:15:18 10° NNW
Cosmos 968 Rocket 3.9 22:06:05 10° NNW 22:11:02 51° WSW 22:13:42 26° S
Cosmos 1992 Rocket 4.1 22:09:34 26° S 22:12:28 64° ESE 22:17:39 10° NNE
Cosmos 2034 Rocket 4.4 22:06:34 10° N 22:12:42 56° ENE 22:16:49 21° SSE
Cosmos 2237 Rocket 2.9 22:12:09 25° SSE 22:14:48 39° ESE 22:19:59 10° NE
Uosat 12 SS-18 rocket 4.2 22:12:32 26° SSW 22:14:57 64° SE 22:20:00 10° NE
FALCON 9 DEB 4.3 22:17:03 24° ESE 22:17:03 24° ESE 22:18:48 10° E
FALCON 9 DEB 3.8 22:17:06 31° ESE 22:17:06 31° ESE 22:19:18 10° ENE
Meteor 2-10 Rocket 4.2 22:18:23 10° NNW 22:23:14 42° W 22:26:01 22° SSW
Cosmos 2360 Rocket 3.8 22:18:44 10° WSW 22:23:49 33° NW 22:28:55 10° NNE
Cosmos 2322 Rocket 4.4 22:19:33 10° W 22:24:07 24° NW 22:28:44 10° NNE
FALCON 9 DEB 3.6 22:25:12 36° ESE 22:25:12 36° ESE 22:27:40 10° ENE
Iridium 2 4.0 22:23:25 30° SSW 22:25:05 59° W 22:28:49 10° N
Okean 1-7 Rocket 4.0 22:23:24 29° SSE 22:25:27 53° E 22:29:49 10° NNE
SAR-Lupe-2 3.6 22:26:32 10° NNE 22:30:07 68° ESE 22:31:21 38° S
COSMOS 2428 2.9 22:26:04 15° SW 22:30:51 71° WNW 22:36:38 10° NNE
Cosmos 2228 4.3 22:30:37 10° NNW 22:34:30 31° W 22:36:41 20° SW
Cosmos 1455 2.6 22:31:15 10° NNW 22:35:00 52° W 22:36:27 32° SSW
Cosmos 1346 Rocket 3.8 22:35:15 20° SW 22:37:36 40° WNW 22:41:25 10° N
Cosmos 1184 Rocket 2.7 22:42:42 43° SSW 22:43:38 81° WNW 22:46:54 10° N
SL-4 R/B 3.5 22:44:56 18° ESE 22:44:56 18° ESE 22:46:46 10° E
Cosmos 2278 Rocket 2.4 22:38:50 10° NW 22:44:24 57° WSW 22:47:25 27° S
Cosmos 2058 Rocket 3.4 22:41:09 10° NNW 22:45:34 57° W 22:47:35 30° SSW
USA 32 4.3 22:40:55 10° N 22:46:08 61° E 22:49:17 24° SSE
Cosmos 1503 Rocket 4.3 22:41:58 10° NNW 22:47:15 57° WSW 22:50:01 27° S
Lacrosse 5 rocket 1.5 22:44:03 10° WSW 22:47:38 59° NNW 22:51:11 10° NE
GP-B 3.4 22:47:13 10° N 22:51:39 59° E 22:53:50 28° SSE
Cosmos 1812 Rocket 4.1 22:47:29 10° N 22:51:45 52° ENE 22:54:10 24° SE
Cosmos 1867 4.1 22:46:59 10° NW 22:52:08 42° WSW 22:54:33 27° S
Cosmos-2242 4.3 22:49:27 10° N 22:53:29 34° ENE 22:56:30 16° SE
FALCON 9 DEB 3.5 22:50:11 10° W 22:53:35 65° NNW 22:56:59 10° ENE
MTI 4.2 22:51:52 10° N 22:54:50 49° WNW 22:55:46 34° SW
Thor Agena Rocket 3.6 22:51:13 10° NNE 22:56:32 82° ESE 22:59:29 27° SSW
Meteor 2-1 Rocket 4.5 22:53:55 10° NNW 22:59:18 56° W 23:02:19 26° SSW
ATLAS 3B R/B 3.2 22:55:16 10° WSW 23:01:45 57° NW 23:08:31 10° NE
BREEZE-M DEB (TANK) 3.3 23:00:16 10° W 23:04:08 86° S 23:16:45 10° E
GENESIS II 4.2 23:02:42 35° SSW 23:04:11 64° SE 23:08:03 10° NE
Meteor 1-4 Rocket 2.3 23:02:17 10° NNW 23:05:50 82° WSW 23:06:59 39° S
BREEZE-M DEB (TANK) 4.4 23:08:24 12° ESE 23:08:24 12° ESE 23:08:40 10° E
Cosmos 192 4.3 23:04:44 27° SSW 23:07:27 88° ESE 23:12:25 10° NNE
USA 215 3.8 23:01:29 10° ENE 23:07:55 62° NNW 23:14:22 10° W
ALOS 2 4.2 23:07:29 18° SW 23:09:19 23° W 23:12:52 10° NW
Cosmos 1703 3.8 23:10:30 28° SW 23:12:17 51° WNW 23:16:11 10° N
Cosmos 1328 3.7 23:13:55 33° SSW 23:15:32 75° W 23:19:27 10° N
ATLAS CENTAUR R/B 3.8 23:17:39 10° W 23:18:25 10° WSW 23:18:46 10° WSW
NOSS 0 Rocket 4.2 23:14:35 16° SW 23:19:35 66° NW 23:25:50 10° NNE
Cosmos 1408 4.3 23:21:16 17° SE 23:23:07 24° E 23:26:07 10° NE
Cosmos 1441 Rocket 4.0 23:21:51 25° SW 23:23:43 44° WNW 23:27:25 10° N
Cosmos 2333 Rocket 4.0 23:19:22 10° W 23:24:14 28° NW 23:29:07 10° NNE
Cosmos 1980 3.9 23:20:08 19° SW 23:24:16 67° WNW 23:29:58 10° NNE
Cosmos 1825 Rocket 4.5 23:22:13 21° SSE 23:24:42 41° E 23:28:54 10° NNE
PSLV R/B 3.6 23:21:10 10° N 23:25:27 75° WNW 23:27:42 28° SSW
SJ 16-02 1.4 23:21:14 10° NNW 23:25:39 74° ENE 23:28:33 21° SSE
FALCON 9 DEB 2.7 23:24:51 28° WSW 23:26:20 86° SSE 23:29:29 10° ENE
Cosmos 1892 3.7 23:30:01 22° SSE 23:31:58 38° E 23:35:36 10° NNE
Cosmos 1634 Rocket 4.0 23:30:42 10° NNW 23:37:01 79° W 23:41:23 21° S
Cosmos 1943 Rocket 2.2 23:32:40 10° NNW 23:38:14 84° ENE 23:43:15 13° SSE
Cosmos 1777 Rocket 4.4 23:36:19 10° NNW 23:41:23 47° WSW 23:44:12 24° SSW
Cosmos 2279 Rocket 4.1 23:35:13 10° N 23:41:30 76° E 23:46:28 17° SSE
Aureole 3 3.2 23:39:14 10° NNW 23:42:35 61° W 23:44:20 29° SSW
Cosmos 724 4.4 23:36:56 10° NW 23:43:07 70° SW 23:48:31 13° SSE
USA 267 4.5 23:42:18 19° SW 23:43:55 20° SW 23:48:36 10° WNW
Cosmos 1953 Rocket 4.3 23:43:31 20° SSE 23:46:12 44° E 23:50:22 10° NNE
Cosmos 2219 Rocket 4.2 23:43:11 10° W 23:47:39 23° NW 23:52:08 10° NNE
EO 1 Del DPAF 3.6 23:47:07 10° N 23:50:46 53° WNW 23:52:37 26° SW
FALCON 9 DEB 3.1 23:49:03 15° W 23:51:34 70° NNW 23:54:41 10° ENE
FALCON 9 DEB 3.3 23:48:59 11° W 23:51:56 62° NNW 23:55:01 10° ENE
SL-16 R/B 2.2 23:48:19 23° SSW 23:51:57 76° ESE 23:57:39 10° NNE
Cosmos 1602 Rocket 4.2 23:53:05 22° SW 23:55:38 46° WNW 23:59:58 10° N
